Location: Clyde
(45.1830°S, 169.3170°E)
Time: 22:21:29
(UTC+13:00)

Thor Agena Rocket - Pass Details

Date: 24 January 2019
Orbit: 760 x 808 km, 99.1° (Epoch: 20 February)

Event Time Altitude Azimuth Distance (km) Brightness Sun altitude
Rises 21:49:29 0° 2° (N) 3,256 6.4 -4.9°
Reaches altitude 10° 21:51:51 10° 357° (N) 2,329 5.7 -5.3°
Maximum altitude 21:56:51 51° 281° (W) 972 4.4 -6.0°
Drops below altitude 10° 22:01:51 10° 204° (SSW) 2,336 7.1 -6.7°
Sets 22:04:15 0° 199° (SSW) 3,266 7.8 -7.0°
